Location: Bacea
(45.9500°N, 22.6667°E)
Time: 01:00:37
(UTC+00:00)

Cosmos 839 Rocket - Pass Details

Date: 16 October 2021
Orbit: 964 x 2088 km, 65.9° (Epoch: 02 December)

Event Time Altitude Azimuth Distance (km) Brightness Sun altitude
Rises 18:32:52 0° 324° (NW) 4,467 8.2 -30.2°
Reaches altitude 10° 18:36:00 10° 324° (NW) 3,330 7.4 -30.7°
Maximum altitude 18:43:44 79° 239° (WSW) 1,133 4.2 -32.0°
Enters shadow 18:43:54 78° 222° (SW) 1,131 4.2 -32.0°
